Regional Weather Roundup
Issued by NWS Jackson, KY

Home | Current Version | Previous Version | Text Only | Print | Product List | Glossary On
Versions: 1 2 3 4 5 6 7 8 9 10 11 12 13 14 15 16 17 18 19 20 21 22 23 24 25 26 27 28 29 30 31 32 33 34 35 36 37 38 39 40 41 42 43 44 45 46 47 48 49 50
000
ASUS43 KJKL 250519
RWRJKL

EAST KENTUCKY HOURLY WEATHER ROUNDUP
NATIONAL WEATHER SERVICE JACKSON KY
1200 AM EST THU DEC 25 2014

NOTE: "FAIR" INDICATES FEW OR NO CLOUDS BELOW 12,000 FEET WITH
NO SIGNIFICANT WEATHER AND/OR OBSTRUCTIONS TO VISIBILITY.

* THESE REPORTS ARE NOT UNDER NWS QUALITY CONTROL AND MAY NOT
  REPORT WEATHER SUCH AS PRECIPITATION AND FOG.

KYZ079-080-083-085-087-088-110-112-115-119-120-250600
...EASTERN KENTUCKY...

CITY           SKY/WX    TMP DP  RH WIND       PRES   REMARKS
JACKSON        CLOUDY    40  37  89 VRB7      29.81R
LONDON         CLOUDY    42  36  79 W10       29.83R
SOMERSET*      CLOUDY    37  32  81 W10       29.86S WCI  30
MONTICELLO*    MOCLDY    39  35  85 SW3       29.89R
MIDDLESBORO*   CLOUDY    44  38  80 SW5       29.85S
HARLAN APT*    CLOUDY    41  39  93 W6        29.82S
BLACK MTN*       N/A     32  32 100 S6          N/A  WCI  26
PIKEVILLE APT* CLOUDY    41  37  87 CALM      29.80S
BIG SANDY*     DRIZZLE   42  39  89 SW3       29.79F
MOREHEAD APT*  CLOUDY    41  36  81 W7G15     29.81R
ASHLAND*       PTCLDY   N/A N/A N/A W5        29.75R
$$

KYZ035-036-041-042-044-050-067-078-099-250600
...CENTRAL KENTUCKY...

CITY           SKY/WX    TMP DP  RH WIND       PRES   REMARKS
MT STERLING*   CLOUDY    39  37  93 W9        29.80S WCI  33
FLEMING/MASON* CLOUDY    39  36  87 W17       29.78S WCI  30
DANVILLE*      CLOUDY    37  34  87 W10G20    29.83S WCI  30
RICHMOND*      CLOUDY    39  32  75 W10       29.81S WCI  32
LEXINGTON      CLOUDY    38  34  85 W14G21    29.80R WCI  30
FRANKFORT      CLOUDY    38  34  85 SW10      29.80R WCI  31
$$

KYZ091>093-OHZ055-061-077-WVZ005-015-034-035-042-250600
...SOUTHERN OHIO/WEST VIRGINIA...

CITY           SKY/WX    TMP DP  RH WIND       PRES   REMARKS
COVINGTON      CLOUDY    39  33  79 SW7G17    29.74R WCI  34
COLUMBUS       CLOUDY    39  32  76 SW17G23   29.69R WCI  30
DAYTON         CLOUDY    39  35  86 SW16      29.69R WCI  30
WILMINGTON     CLOUDY    38  33  82 SW16      29.70R WCI  29
HUNTINGTON     LGT RAIN  42  37  82 SW6       29.77R
CHARLESTON     CLOUDY    43  38  82 W20G26    29.78R
PINEVILLE*     CLOUDY    44  41  89 MISG      29.83R
BECKLEY        CLOUDY    41  36  82 W12G22    29.73F
BLUEFIELD      LGT RAIN  41  36  82 W9G21     29.74S
$$

VAZ002-007-008-TNZ017-027-036-066-071-250600
...SOUTHWEST VIRGINIA/EAST TENNESSEE...

CITY           SKY/WX    TMP DP  RH WIND       PRES   REMARKS
WISE*          CLOUDY    39  36  87 W8        29.79R WCI  34
JONESVILLE*    LGT RAIN  41  39  93 W6        29.85S
ABINGDON*      CLOUDY    45  39  81 W9        29.80S
BRISTOL        CLOUDY    45  37  73 W10       29.81F
KNOXVILLE      CLOUDY    44  40  85 SW8       29.86F
OAK RIDGE      LGT RAIN  45  40  82 CALM      29.88R
CROSSVILLE     CLOUDY    38  35  89 W10       29.87S WCI  31
NASHVILLE      CLOUDY    42  36  79 SW5       29.92R
$$

...KEY TO REMARKS...
VSB - VISIBILITY IN MILES
WCI - WIND CHILL INDEX
HX  - HEAT INDEX

$$



USA.gov is the U.S. government's official web portal to all federal, state and local government web resources and services.